Location: ??
(35.5052°N, 139.7262°E)
Time: 01:20:36
(UTC+00:00)

Cosmos 405 - Pass Details

Date: 20 June 2021
Orbit: 446 x 459 km, 81.3° (Epoch: 26 July)

Event Time Altitude Azimuth Distance (km) Brightness Sun altitude
Rises 12:25:53 0° 352° (N) 2,452 7.7 -22.7°
Reaches altitude 10° 12:27:57 10° 353° (N) 1,576 6.5 -23.0°
Enters shadow 12:30:36 51° 356° (N) 570 3.6 -23.3°
